Location: Nitra
(48.3167°N, 18.0833°E)
Time: 17:08:14
(UTC+02:00)

Envisat - Visible Passes

Search period start: 29 September 2020 00:00
Search period end: 09 October 2020 00:00
Orbit: 764 x 766 km, 98.1° (Epoch: 29 September)

Date Brightness Start Highest point End Pass type
(mag) Time Alt. Az. Time Alt. Az. Time Alt. Az.
29 Sep 6.2 19:20:13 10° SW 19:23:29 17° W 19:26:46 10° NW visible
30 Sep 6.1 05:44:54 10° NE 05:48:30 19° E 05:52:04 10° SE visible
02 Oct 5.2 06:09:41 10° NNE 06:14:12 31° E 06:18:41 10° SSE visible
02 Oct 6.0 19:08:11 10° SW 19:11:59 21° W 19:15:49 10° NW visible
03 Oct 6.2 05:34:02 10° NE 05:37:00 15° E 05:39:56 10° ESE visible
04 Oct 6.5 19:35:38 10° WSW 19:37:46 13° W 19:39:55 10° WNW visible
05 Oct 5.6 05:58:32 10° NE 06:02:44 25° E 06:06:54 10° SSE visible
05 Oct 5.6 18:56:18 10° SSW 19:00:30 26° W 19:04:45 10° NW visible
06 Oct 6.5 05:23:28 10° ENE 05:25:28 12° E 05:27:28 10° ESE visible
07 Oct 6.3 19:23:13 10° SW 19:26:14 16° W 19:29:18 10° NW visible
08 Oct 5.9 05:47:29 10° NE 05:51:15 21° E 05:55:01 10° SE visible
08 Oct 5.2 18:44:32 10° SSW 18:49:03 32° W 18:53:35 10° NNW visible
